Time,TemperatureF,DewpointF,PressureIn,WindDirection,WindDirectionDegrees,WindSpeedMPH,WindSpeedGustMPH,Humidity,HourlyPrecipIn,Conditions,Clouds,dailyrainin,SoftwareType,DateUTC
2013-08-25 00:03:00,71.0,65.0,30.23,ESE,115,0.0,1.0,80,0.00,,,0.00,,2013-08-25 05:03:00,
2013-08-25 00:22:00,70.0,64.0,30.23,ESE,115,0.0,2.0,81,0.00,,,0.00,,2013-08-25 05:22:00,
2013-08-25 00:34:00,70.0,64.0,30.23,ESE,115,0.0,2.0,81,0.00,,,0.00,,2013-08-25 05:34:00,
2013-08-25 00:52:00,70.0,64.0,30.22,ESE,115,0.0,2.0,82,0.00,,,0.00,,2013-08-25 05:52:00,
2013-08-25 01:03:00,70.0,64.0,30.22,ESE,115,0.0,2.0,82,0.00,,,0.00,,2013-08-25 06:03:00,
2013-08-25 01:22:00,69.0,63.0,30.22,ESE,115,0.0,1.0,81,0.00,,,0.00,,2013-08-25 06:22:00,
2013-08-25 01:32:00,69.0,63.0,30.22,ESE,115,0.0,1.0,81,0.00,,,0.00,,2013-08-25 06:32:00,
2013-08-25 01:52:00,68.0,63.0,30.22,ESE,115,0.0,1.0,83,0.00,,,0.00,,2013-08-25 06:52:00,
2013-08-25 02:01:00,68.0,63.0,30.22,ESE,115,0.0,1.0,83,0.00,,,0.00,,2013-08-25 07:01:00,
2013-08-25 02:22:00,68.0,63.0,30.22,ESE,115,0.0,1.0,84,0.00,,,0.00,,2013-08-25 07:22:00,
2013-08-25 02:32:00,68.0,63.0,30.22,ESE,115,0.0,1.0,84,0.00,,,0.00,,2013-08-25 07:32:00,
2013-08-25 02:52:00,68.0,63.0,30.23,ESE,115,1.0,4.0,85,0.00,,,0.00,,2013-08-25 07:52:00,
2013-08-25 03:02:00,68.0,63.0,30.23,ESE,115,1.0,4.0,85,0.00,,,0.00,,2013-08-25 08:02:00,
2013-08-25 03:21:00,67.0,62.0,30.23,ESE,115,0.0,2.0,84,0.00,,,0.00,,2013-08-25 08:21:00,
2013-08-25 03:32:00,67.0,62.0,30.23,ESE,115,0.0,2.0,84,0.00,,,0.00,,2013-08-25 08:32:00,
2013-08-25 03:52:00,66.0,61.0,30.24,ESE,115,0.0,2.0,85,0.00,,,0.00,,2013-08-25 08:52:00,
2013-08-25 04:02:00,66.0,61.0,30.24,ESE,115,0.0,2.0,85,0.00,,,0.00,,2013-08-25 09:02:00,
2013-08-25 04:22:00,65.0,62.0,30.25,ESE,115,0.0,1.0,89,0.00,,,0.00,,2013-08-25 09:22:00,
2013-08-25 04:34:00,65.0,62.0,30.25,ESE,115,0.0,1.0,89,0.00,,,0.00,,2013-08-25 09:34:00,
2013-08-25 04:55:00,65.0,62.0,30.25,ESE,115,0.0,1.0,89,0.00,,,0.00,,2013-08-25 09:55:00,
2013-08-25 05:03:00,65.0,62.0,30.25,ESE,115,0.0,1.0,89,0.00,,,0.00,,2013-08-25 10:03:00,
2013-08-25 05:22:00,64.0,61.0,30.25,ESE,115,0.0,1.0,90,0.00,,,0.00,,2013-08-25 10:22:00,
2013-08-25 05:33:00,64.0,61.0,30.25,ESE,115,0.0,1.0,90,0.00,,,0.00,,2013-08-25 10:33:00,
2013-08-25 05:53:00,64.0,61.0,30.26,ESE,115,0.0,2.0,90,0.00,,,0.00,,2013-08-25 10:53:00,
2013-08-25 06:02:00,64.0,61.0,30.26,ESE,115,0.0,2.0,90,0.00,,,0.00,,2013-08-25 11:02:00,
2013-08-25 06:22:00,64.0,61.0,30.27,ESE,115,0.0,1.0,90,0.00,,,0.00,,2013-08-25 11:22:00,
2013-08-25 06:33:00,64.0,61.0,30.27,ESE,115,0.0,1.0,90,0.00,,,0.00,,2013-08-25 11:33:00,
2013-08-25 06:52:00,64.0,61.0,30.28,ESE,115,0.0,1.0,90,0.00,,,0.00,,2013-08-25 11:52:00,
2013-08-25 07:01:00,64.0,61.0,30.28,ESE,115,0.0,1.0,90,0.00,,,0.00,,2013-08-25 12:01:00,
2013-08-25 07:22:00,64.0,61.0,30.29,ESE,115,0.0,1.0,90,0.00,,,0.00,,2013-08-25 12:22:00,
2013-08-25 07:32:00,64.0,61.0,30.29,ESE,115,0.0,1.0,90,0.00,,,0.00,,2013-08-25 12:32:00,
2013-08-25 07:52:00,67.0,63.0,30.29,ESE,115,1.0,3.0,87,0.00,,,0.00,,2013-08-25 12:52:00,
2013-08-25 08:21:00,69.0,63.0,30.29,ESE,115,2.0,4.0,80,0.00,,,0.00,,2013-08-25 13:21:00,
2013-08-25 08:32:00,69.0,63.0,30.29,ESE,115,2.0,4.0,80,0.00,,,0.00,,2013-08-25 13:32:00,
2013-08-25 08:52:00,72.0,64.0,30.29,ESE,115,0.0,3.0,77,0.00,,,0.00,,2013-08-25 13:52:00,
2013-08-25 09:02:00,72.0,64.0,30.29,ESE,115,0.0,3.0,77,0.00,,,0.00,,2013-08-25 14:02:00,
2013-08-25 09:24:00,75.0,65.0,30.29,SSE,153,1.0,5.0,71,0.00,,,0.00,,2013-08-25 14:24:00,
2013-08-25 09:32:00,75.0,65.0,30.29,SSE,153,1.0,5.0,71,0.00,,,0.00,,2013-08-25 14:32:00,
2013-08-25 09:52:00,77.0,65.0,30.29,SSE,152,2.0,8.0,66,0.00,,,0.00,,2013-08-25 14:52:00,
2013-08-25 10:01:00,77.0,65.0,30.29,SSE,152,2.0,8.0,66,0.00,,,0.00,,2013-08-25 15:01:00,
2013-08-25 10:23:00,80.0,65.0,30.29,SSE,156,2.0,8.0,60,0.00,,,0.00,,2013-08-25 15:23:00,
2013-08-25 10:35:00,80.0,65.0,30.29,SSE,156,2.0,8.0,60,0.00,,,0.00,,2013-08-25 15:35:00,
2013-08-25 10:55:00,81.0,65.0,30.28,SW,234,1.0,7.0,59,0.00,,,0.00,,2013-08-25 15:55:00,
2013-08-25 11:04:00,81.0,65.0,30.28,SW,234,1.0,7.0,59,0.00,,,0.00,,2013-08-25 16:04:00,
2013-08-25 11:24:00,83.0,66.0,30.29,SSE,168,2.0,5.0,56,0.00,,,0.00,,2013-08-25 16:24:00,
2013-08-25 11:33:00,83.0,66.0,30.29,SSE,168,2.0,5.0,56,0.00,,,0.00,,2013-08-25 16:33:00,
2013-08-25 11:54:00,84.0,64.0,30.28,ESE,108,4.0,8.0,52,0.00,,,0.00,,2013-08-25 16:54:00,
2013-08-25 12:03:00,84.0,64.0,30.28,ESE,108,4.0,8.0,52,0.00,,,0.00,,2013-08-25 17:03:00,
2013-08-25 12:22:00,85.0,64.0,30.27,SSE,155,3.0,5.0,50,0.00,,,0.00,,2013-08-25 17:22:00,
2013-08-25 12:34:00,85.0,64.0,30.27,SSE,155,3.0,5.0,50,0.00,,,0.00,,2013-08-25 17:34:00,
2013-08-25 12:53:00,85.0,64.0,30.26,South,189,4.0,7.0,49,0.00,,,0.00,,2013-08-25 17:53:00,
2013-08-25 13:02:00,85.0,64.0,30.26,South,189,4.0,7.0,49,0.00,,,0.00,,2013-08-25 18:02:00,
2013-08-25 13:22:00,87.0,64.0,30.25,SSW,200,2.0,5.0,46,0.00,,,0.00,,2013-08-25 18:22:00,
2013-08-25 13:32:00,87.0,64.0,30.25,SSW,200,2.0,5.0,46,0.00,,,0.00,,2013-08-25 18:32:00,
2013-08-25 13:52:00,87.0,64.0,30.25,SSE,155,1.0,6.0,46,0.00,,,0.00,,2013-08-25 18:52:00,
2013-08-25 14:02:00,87.0,64.0,30.25,SSE,155,1.0,6.0,46,0.00,,,0.00,,2013-08-25 19:02:00,
2013-08-25 14:22:00,88.0,65.0,30.24,South,178,3.0,7.0,46,0.00,,,0.00,,2013-08-25 19:22:00,
2013-08-25 14:32:00,88.0,65.0,30.24,South,178,3.0,7.0,46,0.00,,,0.00,,2013-08-25 19:32:00,
2013-08-25 14:53:00,88.0,63.0,30.23,SSE,160,3.0,7.0,44,0.00,,,0.00,,2013-08-25 19:53:00,
2013-08-25 15:03:00,88.0,63.0,30.23,SSE,160,3.0,7.0,44,0.00,,,0.00,,2013-08-25 20:03:00,
2013-08-25 15:23:00,88.0,63.0,30.22,SE,145,3.0,8.0,44,0.00,,,0.00,,2013-08-25 20:23:00,
2013-08-25 15:33:00,88.0,63.0,30.22,SE,145,3.0,8.0,44,0.00,,,0.00,,2013-08-25 20:33:00,
2013-08-25 15:53:00,88.0,65.0,30.21,SSW,199,0.0,7.0,47,0.00,,,0.00,,2013-08-25 20:53:00,
2013-08-25 16:01:00,88.0,65.0,30.21,SSW,199,0.0,7.0,47,0.00,,,0.00,,2013-08-25 21:01:00,
2013-08-25 16:22:00,87.0,63.0,30.21,SE,136,4.0,9.0,45,0.00,,,0.00,,2013-08-25 21:22:00,
2013-08-25 16:34:00,87.0,63.0,30.21,SE,136,4.0,9.0,45,0.00,,,0.00,,2013-08-25 21:34:00,
2013-08-25 16:55:00,87.0,63.0,30.21,SE,146,4.0,6.0,45,0.00,,,0.00,,2013-08-25 21:55:00,
2013-08-25 17:03:00,87.0,63.0,30.21,SE,146,4.0,6.0,45,0.00,,,0.00,,2013-08-25 22:03:00,
2013-08-25 17:24:00,87.0,62.0,30.20,SE,143,2.0,6.0,44,0.00,,,0.00,,2013-08-25 22:24:00,
2013-08-25 17:34:00,87.0,62.0,30.20,SE,143,2.0,6.0,44,0.00,,,0.00,,2013-08-25 22:34:00,
2013-08-25 17:53:00,86.0,63.0,30.20,SE,135,2.0,7.0,47,0.00,,,0.00,,2013-08-25 22:53:00,
2013-08-25 18:03:00,86.0,63.0,30.20,SE,135,2.0,7.0,47,0.00,,,0.00,,2013-08-25 23:03:00,
2013-08-25 18:23:00,86.0,63.0,30.20,SSE,150,1.0,5.0,47,0.00,,,0.00,,2013-08-25 23:23:00,
2013-08-25 18:33:00,86.0,63.0,30.20,SSE,150,1.0,5.0,47,0.00,,,0.00,,2013-08-25 23:33:00,
2013-08-25 18:53:00,85.0,65.0,30.19,SE,146,1.0,3.0,51,0.00,,,0.00,,2013-08-25 23:53:00,
2013-08-25 19:02:00,85.0,65.0,30.19,SE,146,1.0,3.0,51,0.00,,,0.00,,2013-08-26 00:02:00,
2013-08-25 19:22:00,83.0,66.0,30.19,SE,146,0.0,2.0,56,0.00,,,0.00,,2013-08-26 00:22:00,
2013-08-25 19:32:00,83.0,66.0,30.19,SE,146,0.0,2.0,56,0.00,,,0.00,,2013-08-26 00:32:00,
2013-08-25 19:52:00,81.0,67.0,30.19,SE,145,0.0,1.0,63,0.00,,,0.00,,2013-08-26 00:52:00,
2013-08-25 20:01:00,81.0,67.0,30.19,SE,145,0.0,1.0,63,0.00,,,0.00,,2013-08-26 01:01:00,
2013-08-25 20:11:00,81.0,67.0,30.19,SE,145,0.0,1.0,63,0.00,,,0.00,,2013-08-26 01:11:00,
2013-08-25 20:22:00,79.0,66.0,30.20,SE,145,0.0,1.0,65,0.00,,,0.00,,2013-08-26 01:22:00,
2013-08-25 20:32:00,79.0,66.0,30.20,SE,145,0.0,1.0,65,0.00,,,0.00,,2013-08-26 01:32:00,
2013-08-25 20:42:00,79.0,66.0,30.20,SE,145,0.0,1.0,65,0.00,,,0.00,,2013-08-26 01:42:00,
2013-08-25 20:52:00,77.0,66.0,30.20,SE,145,0.0,0.0,68,0.00,,,0.00,,2013-08-26 01:52:00,
2013-08-25 21:02:00,77.0,66.0,30.20,SE,145,0.0,0.0,68,0.00,,,0.00,,2013-08-26 02:02:00,
2013-08-25 21:22:00,75.0,65.0,30.22,SE,145,0.0,1.0,70,0.00,,,0.00,,2013-08-26 02:22:00,
2013-08-25 21:32:00,75.0,65.0,30.22,SE,145,0.0,1.0,70,0.00,,,0.00,,2013-08-26 02:32:00,
2013-08-25 21:52:00,74.0,64.0,30.22,SE,145,0.0,1.0,72,0.00,,,0.00,,2013-08-26 02:52:00,
2013-08-25 22:02:00,74.0,64.0,30.22,SE,145,0.0,1.0,72,0.00,,,0.00,,2013-08-26 03:02:00,
2013-08-25 22:22:00,74.0,65.0,30.22,SE,145,0.0,1.0,73,0.00,,,0.00,,2013-08-26 03:22:00,
2013-08-25 22:34:00,74.0,65.0,30.22,SE,145,0.0,1.0,73,0.00,,,0.00,,2013-08-26 03:34:00,
2013-08-25 22:56:00,73.0,65.0,30.22,SE,146,0.0,2.0,76,0.00,,,0.00,,2013-08-26 03:56:00,
2013-08-25 23:05:00,73.0,65.0,30.22,SE,146,0.0,2.0,76,0.00,,,0.00,,2013-08-26 04:05:00,
2013-08-25 23:14:00,73.0,65.0,30.22,SE,146,0.0,2.0,76,0.00,,,0.00,,2013-08-26 04:14:00,
2013-08-25 23:53:00,70.0,64.0,30.22,SE,145,1.0,3.0,80,0.00,,,0.00,,2013-08-26 04:53:00,